METAR AND TAF INFORMATION
METAR FOR KMIA
KMIA 230253Z 09007KT 10SM FEW035 SCT120 BKN250 27/23 A3008 RMK AO2 SLP186 T02720233 50002 $
KMIA 230153Z 10005KT 10SM SCT160 BKN250 27/24 A3008 RMK AO2 SLP187 T02670239
KMIA 230053Z 10006KT 10SM FEW025 SCT160 BKN250 27/24 A3008 RMK AO2 SLP185 T02670239
KMIA 230230Z 2303/2406 VRB04KT P6SM VCSH SCT030 BKN080 BKN250
FM230900 11007KT P6SM VCSH SCT025 BKN050
FM231500 13011KT P6SM VCTS SCT025CB BKN050
FM232200 11008KT P6SM VCSH SCT030 BKN080 BKN250
FM240300 10010KT P6SM FEW030 SCT100 BKN250

 AIRPORT MAP

 RUNWAY INFORMATION
Runway 08L Runway length 8600 ft Runway width 150 ft
Runway elevation 8 ft Runway displaced threshold 0 ft Runway heading 87
Runway 26R Runway length 8600 ft Runway width 150 ft
Runway elevation 8 ft Runway displaced threshold 0 ft Runway heading 267
Runway 08R Runway length 10506 ft Runway width 200 ft
Runway elevation 8 ft Runway displaced threshold 0 ft Runway heading 87
Runway 26L Runway length 10506 ft Runway width 200 ft
Runway elevation 8 ft Runway displaced threshold 0 ft Runway heading 267
Runway 09 Runway length 13000 ft Runway width 150 ft
Runway elevation 7 ft Runway displaced threshold 1350 ft Runway heading 87
Runway 27 Runway length 13000 ft Runway width 150 ft
Runway elevation 8 ft Runway displaced threshold 1270 ft Runway heading 267
Runway 12 Runway length 9354 ft Runway width 150 ft
Runway elevation 8 ft Runway displaced threshold 0 ft Runway heading 119
Runway 30 Runway length 9354 ft Runway width 150 ft
Runway elevation 8 ft Runway displaced threshold 939 ft Runway heading 299

 AIRPORT FREQUENCIES
Type APP Name APP Frequency 120.5 MHZ
Type ATIS Name ATIS Frequency 119.15 MHZ
Type CLD Name CLNC DEL Frequency 120.35 MHZ
Type DEP Name DEP Frequency 119.45 MHZ
Type GND Name GND Frequency 121.8 MHZ
Type TWR Name TWR Frequency 118.3 MHZ
Type UNIC Name UNICOM Frequency 123 MHZ

 AIRPORT NEAR NAVIGATION AIDS
Type VORTAC Name Dolphin Frequency 113900 KHZ
Type NDB Name Keyes Frequency 248 KHZ

-